Weather History for Laurinburg-Maxton, NC

Change the Weather History Date:

Sunday, September 1, 2013

  Actual Average (KLBT) Record (KLBT)
Temperature  
Mean Temperature 82 °F 77 °F  
Max Temperature 91 °F 87 °F 96 °F (2010)
Min Temperature 72 °F 67 °F 57 °F (1999)
Degree Days  
Heating Degree Days 0 0  
Month to date heating degree days 0  
Since 1 July heating degree days 0  
Cooling Degree Days 16 12  
Month to date cooling degree days 12  
Year to date cooling degree days 1584  
Growing Degree Days 32 (Base 50)    
Moisture  
Dew Point 72 °F    
Average Humidity 80    
Maximum Humidity 100    
Minimum Humidity 55    
Precipitation  
Precipitation 0.00 in 0.18 in 0.46 in (2013)
Month to date precipitation 0.18  
Year to date precipitation 30.57  
Sea Level Pressure  
Sea Level Pressure 29.89 in    
Wind  
Wind Speed 7 mph (SW)    
Max Wind Speed 20 mph    
Max Gust Speed 30 mph    
Visibility 8 miles    
Events Thunderstorm    
T = Trace of Precipitation, MM = Missing Value Source: NWS Daily Summary

Daily Weather History Graph

Daily Weather History Graph

Search for Another Location

Airport:

Trip Planner

Search our weather history database for the weather conditions in past years. The results will help you decide how hot, cold, wet, or windy it might be!

Date:

Astronomy

Sep. 01, 2013 Rise Set
Actual Time 6:50 AM EDT 7:43 PM EDT
Civil Twilight 6:24 AM EDT 8:09 PM EDT
Nautical Twilight 5:54 AM EDT 8:39 PM EDT
Astronomical Twilight 5:22 AM EDT 9:11 PM EDT
Moon 3:16 AM EDT (9/1) 5:15 PM EDT (9/1)
Length of Visible Light 13h 44m
Length of Day
12h 53m
Waning Crescent, 14% of the Moon is Illuminated
Sep 1
Waning Crescent
Sep 5
New
Sep 12
First Quarter
Sep 19
Full
Sep 26
Last Quarter

Hourly Weather History & Observations

Time (EDT) Temp. Heat Index Dew Point Humidity Pressure Visibility Wind Dir Wind Speed Gust Speed Precip Events Conditions
12:52 AM 73.9 °F - 73.0 °F 97% 29.91 in 10.0 mi SSW 5.8 mph - N/A   Clear
1:52 AM 73.9 °F - 73.0 °F 97% 29.91 in 9.0 mi SSW 4.6 mph - N/A   Clear
2:52 AM 73.9 °F - 73.0 °F 97% 29.91 in 8.0 mi SW 4.6 mph - N/A   Mostly Cloudy
3:52 AM 73.0 °F - 73.0 °F 100% 29.89 in 6.0 mi SW 4.6 mph - N/A   Clear
4:52 AM 73.0 °F - 73.0 °F 100% 29.89 in 5.0 mi SW 4.6 mph - N/A   Clear
5:52 AM 73.0 °F - 73.0 °F 100% 29.90 in 4.0 mi SW 4.6 mph - N/A   Mostly Cloudy
6:52 AM 73.0 °F - 72.0 °F 96% 29.91 in 5.0 mi SW 3.5 mph - N/A   Partly Cloudy
7:10 AM 73.4 °F - 73.4 °F 100% 29.92 in 4.0 mi SW 5.8 mph - N/A   Partly Cloudy
7:35 AM 73.4 °F - 73.4 °F 100% 29.92 in 3.0 mi SW 6.9 mph - N/A   Mostly Cloudy
7:52 AM 75.0 °F - 73.9 °F 96% 29.92 in 3.0 mi SW 8.1 mph - N/A   Overcast
8:52 AM 78.1 °F - 75.0 °F 90% 29.93 in 4.0 mi WSW 6.9 mph - N/A   Mostly Cloudy
9:21 AM 78.8 °F - 75.2 °F 89% 29.94 in 6.0 mi SW 8.1 mph - N/A   Scattered Clouds
9:52 AM 82.0 °F 88.6 °F 75.0 °F 79% 29.94 in 7.0 mi SW 8.1 mph - N/A   Partly Cloudy
10:52 AM 84.9 °F 93.3 °F 75.0 °F 72% 29.94 in 8.0 mi SW 4.6 mph - N/A   Partly Cloudy
11:52 AM 88.0 °F 96.5 °F 73.9 °F 63% 29.92 in 9.0 mi WSW 9.2 mph - N/A   Mostly Cloudy
12:52 PM 89.1 °F 97.0 °F 73.0 °F 59% 29.90 in 10.0 mi SW 10.4 mph 18.4 mph N/A   Partly Cloudy
1:52 PM 89.1 °F 98.0 °F 73.9 °F 61% 29.89 in 10.0 mi WSW 6.9 mph - N/A   Clear
2:52 PM 90.0 °F 97.9 °F 73.0 °F 57% 29.86 in 10.0 mi WSW 12.7 mph - N/A   Partly Cloudy
3:52 PM 89.1 °F 97.0 °F 73.0 °F 59% 29.83 in 10.0 mi SSW 12.7 mph - N/A   Clear
4:52 PM 90.0 °F 96.9 °F 72.0 °F 55% 29.81 in 10.0 mi SW 12.7 mph 18.4 mph N/A   Scattered Clouds
5:52 PM 87.1 °F 92.8 °F 71.1 °F 59% 29.83 in 10.0 mi SW 9.2 mph - N/A   Clear
6:20 PM 87.8 °F 93.8 °F 71.6 °F 58% 29.83 in 10.0 mi SW 9.2 mph - N/A Thunderstorm Partly Cloudy
6:35 PM 87.8 °F 93.8 °F 71.6 °F 58% 29.83 in 10.0 mi SSW 8.1 mph - N/A   Partly Cloudy
6:52 PM 86.0 °F 93.0 °F 73.0 °F 65% 29.82 in 10.0 mi SSW 6.9 mph - N/A   Clear
7:52 PM 82.0 °F 87.9 °F 73.9 °F 76% 29.85 in 9.0 mi SSW 8.1 mph - N/A   Clear
8:52 PM 80.1 °F 83.6 °F 71.1 °F 74% 29.88 in 9.0 mi NNW 19.6 mph 29.9 mph N/A   Mostly Cloudy
9:08 PM 77.0 °F - 66.2 °F 69% 29.89 in 10.0 mi NW 12.7 mph 24.2 mph N/A   Overcast
9:23 PM 75.2 °F - 66.2 °F 73% 29.90 in 10.0 mi NW 12.7 mph 24.2 mph N/A Thunderstorm Mostly Cloudy
9:52 PM 73.9 °F - 68.0 °F 82% 29.90 in 10.0 mi SW 8.1 mph - N/A Thunderstorm Mostly Cloudy
10:30 PM 73.4 °F - 71.6 °F 94% 29.88 in 9.0 mi WSW 6.9 mph - 0.00 in   Partly Cloudy
10:52 PM 73.0 °F - 71.1 °F 93% 29.87 in 10.0 mi Calm Calm - 0.00 in   Clear
11:52 PM 72.0 °F - 70.0 °F 93% 29.89 in 10.0 mi SSE 4.6 mph - N/A   Clear